KAL8203 RKSI-KLAX

Flight info

Callsign KAL8203
Flight time N/A
Altitude 31000
Route EGOBA Y697 KAE Y437 TENAS L512 KAMSA/N0482F330 L512 GTC Y512 ADNAP OTR5 KALNA/M082F330 DCT 42N160E 43N170E 44N180E 45N170W 47N160W/M082F350 47N150W 45N140W 40N130W/N0474F370 DCT DACEM DCT PAINT DCT PIRAT DCT BURGL IRNMN2
Aircraft B77L/H-SDE2FGHIJ3J5M1P2RWXYZ/LB1D1

Departure

Time 2026-05-01 13:53
Airport Incheon International Airport (RKSI)

Arrival

Time N/A
Airport Los Angeles International Airport (KLAX)
Time Latitude Longitude Altitude Speed Heading
2026-05-01 13:09 37.46665 126.46937 36 ft 0 kts 144°
2026-05-01 13:40 37.46666 126.46936 36 ft 1 kts 144°
2026-05-01 13:40 37.46680 126.46924 34 ft 3 kts 144°
2026-05-01 13:40 37.46693 126.46911 35 ft 2 kts 146°
2026-05-01 13:40 37.46708 126.46901 35 ft 3 kts 172°
2026-05-01 13:41 37.46725 126.46901 35 ft 3 kts 200°
2026-05-01 13:41 37.46742 126.46912 35 ft 3 kts 218°
2026-05-01 13:41 37.46757 126.46928 34 ft 3 kts 229°
2026-05-01 13:41 37.46767 126.46944 33 ft 1 kts 234°
2026-05-01 13:42 37.46769 126.46949 33 ft 0 kts 234°
2026-05-01 13:45 37.46763 126.46937 34 ft 4 kts 234°
2026-05-01 13:45 37.46738 126.46892 35 ft 9 kts 234°
2026-05-01 13:45 37.46694 126.46814 36 ft 13 kts 234°
2026-05-01 13:46 37.46633 126.46705 36 ft 17 kts 234°
2026-05-01 13:46 37.46557 126.46570 36 ft 20 kts 234°
2026-05-01 13:46 37.46478 126.46430 36 ft 20 kts 234°
2026-05-01 13:46 37.46396 126.46293 35 ft 20 kts 228°
2026-05-01 13:47 37.46309 126.46210 36 ft 13 kts 195°
2026-05-01 13:47 37.46221 126.46198 37 ft 13 kts 214°
2026-05-01 13:47 37.46161 126.46110 37 ft 13 kts 231°
2026-05-01 13:47 37.46108 126.46016 37 ft 13 kts 237°
2026-05-01 13:48 37.46056 126.45920 37 ft 13 kts 233°
2026-05-01 13:48 37.45971 126.45908 36 ft 13 kts 158°
2026-05-01 13:48 37.45893 126.45974 34 ft 13 kts 144°
2026-05-01 13:48 37.45817 126.46043 36 ft 13 kts 144°
2026-05-01 13:49 37.45741 126.46112 35 ft 13 kts 147°
2026-05-01 13:49 37.45663 126.46178 35 ft 13 kts 144°
2026-05-01 13:49 37.45587 126.46247 36 ft 13 kts 146°
2026-05-01 13:49 37.45508 126.46223 34 ft 10 kts 227°
2026-05-01 13:50 37.45496 126.46200 36 ft 0 kts 236°
2026-05-01 13:51 37.45492 126.46193 36 ft 4 kts 236°
2026-05-01 13:52 37.45456 126.46124 35 ft 14 kts 239°
2026-05-01 13:52 37.45479 126.46037 34 ft 0 kts 323°
2026-05-01 13:52 37.45502 126.46015 34 ft 15 kts 323°
2026-05-01 13:52 37.45789 126.45757 35 ft 91 kts 324°
2026-05-01 13:53 37.46525 126.45104 34 ft 166 kts 324°
2026-05-01 13:53 37.48695 126.43197 1357 ft 185 kts 324°
2026-05-01 13:53 37.49767 126.42314 2009 ft 197 kts 324°
2026-05-01 13:54 37.50962 126.41339 2385 ft 209 kts 324°
2026-05-01 13:54 37.52140 126.40382 2771 ft 215 kts 324°
2026-05-01 13:54 37.53402 126.39341 3206 ft 218 kts 323°
2026-05-01 13:54 37.54674 126.38269 3658 ft 221 kts 323°
2026-05-01 13:55 37.55961 126.37184 4093 ft 227 kts 323°
2026-05-01 13:55 37.57232 126.35940 4403 ft 236 kts 307°
2026-05-01 13:55 37.57900 126.34047 4773 ft 242 kts 278°
2026-05-01 13:55 37.58007 126.31890 5212 ft 251 kts 271°
2026-05-01 13:56 37.57995 126.29644 5389 ft 260 kts 270°
2026-05-01 13:56 37.57980 126.27362 6076 ft 259 kts 271°
2026-05-01 13:56 37.57974 126.25095 6807 ft 259 kts 272°
2026-05-01 13:56 37.57739 126.22838 7290 ft 268 kts 251°
2026-05-01 13:57 37.56680 126.20860 7816 ft 280 kts 227°
2026-05-01 13:57 37.55642 126.19872 8204 ft 287 kts 212°
2026-05-01 13:57 37.53097 126.18676 8886 ft 297 kts 202°
2026-05-01 13:57 37.51117 126.17880 9472 ft 300 kts 202°
2026-05-01 13:58 37.49121 126.17064 10075 ft 303 kts 203°
2026-05-01 13:58 37.47092 126.16214 10437 ft 315 kts 203°
2026-05-01 13:58 37.44975 126.15315 10577 ft 335 kts 203°
2026-05-01 13:58 37.42612 126.14669 10669 ft 358 kts 183°
2026-05-01 13:59 37.40106 126.15314 10829 ft 384 kts 156°
2026-05-01 13:59 37.37957 126.17329 11167 ft 397 kts 132°
2026-05-01 13:59 37.36189 126.20051 11562 ft 406 kts 129°
2026-05-01 13:59 37.34401 126.22824 12131 ft 408 kts 127°
2026-05-01 14:00 37.33011 126.25936 12623 ft 413 kts 107°
2026-05-01 14:00 37.32485 126.29459 13299 ft 409 kts 89°
2026-05-01 14:00 37.32484 126.33033 13877 ft 412 kts 87°
2026-05-01 14:00 37.32511 126.36672 14383 ft 418 kts 87°
2026-05-01 14:01 37.32510 126.40344 14961 ft 422 kts 88°
2026-05-01 14:01 37.32484 126.44052 15525 ft 426 kts 88°
2026-05-01 14:01 37.32447 126.47787 16079 ft 430 kts 88°
2026-05-01 14:01 37.32404 126.51573 16635 ft 435 kts 88°
2026-05-01 14:02 37.32360 126.55388 17150 ft 440 kts 88°
2026-05-01 14:02 37.32315 126.59251 17683 ft 444 kts 88°
2026-05-01 14:02 37.32269 126.63151 18216 ft 448 kts 88°
2026-05-01 14:02 37.32223 126.67077 18675 ft 452 kts 88°
2026-05-01 14:03 37.32174 126.71039 19130 ft 456 kts 88°
2026-05-01 14:03 37.32127 126.75044 19588 ft 460 kts 88°
2026-05-01 14:03 37.32081 126.79076 20034 ft 464 kts 88°
2026-05-01 14:03 37.32035 126.83141 20479 ft 467 kts 88°
2026-05-01 14:04 37.31988 126.87241 20930 ft 471 kts 88°
2026-05-01 14:04 37.31940 126.91196 21343 ft 475 kts 88°
2026-05-01 14:04 37.31888 126.95363 21780 ft 479 kts 88°
2026-05-01 14:04 37.31878 126.98125 22054 ft 477 kts 83°
2026-05-01 14:05 37.32857 127.03493 22387 ft 469 kts 58°
2026-05-01 14:05 37.34489 127.06972 22861 ft 462 kts 52°
2026-05-01 14:05 37.36173 127.10446 23222 ft 468 kts 53°
2026-05-01 14:05 37.37833 127.13984 23617 ft 472 kts 53°
2026-05-01 14:06 37.39485 127.17578 23969 ft 476 kts 54°
2026-05-01 14:06 37.41134 127.21195 24315 ft 480 kts 54°
2026-05-01 14:06 37.42779 127.24816 24620 ft 484 kts 54°
2026-05-01 14:06 37.44454 127.28504 24966 ft 487 kts 53°
2026-05-01 14:07 37.46142 127.32214 25304 ft 490 kts 53°
2026-05-01 14:07 37.47844 127.35957 25635 ft 494 kts 54°
2026-05-01 14:07 37.49312 127.39923 25934 ft 509 kts 66°
2026-05-01 14:08 37.50686 127.48837 26516 ft 525 kts 76°
2026-05-01 14:08 37.51272 127.53385 26779 ft 528 kts 75°
2026-05-01 14:08 37.51935 127.57949 27105 ft 530 kts 73°
2026-05-01 14:08 37.52660 127.62513 27407 ft 534 kts 72°
2026-05-01 14:09 37.53408 127.67111 27676 ft 537 kts 72°
2026-05-01 14:09 37.54153 127.71734 27981 ft 541 kts 72°
2026-05-01 14:09 37.54894 127.76395 28282 ft 543 kts 73°
2026-05-01 14:09 37.55633 127.81080 28554 ft 547 kts 72°
2026-05-01 14:10 37.56373 127.85792 28832 ft 550 kts 72°
2026-05-01 14:10 37.57117 127.90538 29139 ft 552 kts 72°
2026-05-01 14:10 37.57849 127.95223 29501 ft 552 kts 72°
2026-05-01 14:10 37.58598 128.00024 29875 ft 552 kts 72°
2026-05-01 14:11 37.59330 128.04733 30194 ft 553 kts 72°
2026-05-01 14:11 37.60810 128.14260 30748 ft 555 kts 72°
2026-05-01 14:11 37.61551 128.19049 30901 ft 558 kts 72°
2026-05-01 14:12 37.63033 128.28682 30929 ft 559 kts 72°
2026-05-01 14:12 37.64502 128.38308 30911 ft 558 kts 72°
2026-05-01 14:13 37.65717 128.46301 30915 ft 557 kts 71°
2026-05-01 14:13 37.67419 128.57519 30902 ft 557 kts 72°
2026-05-01 14:14 37.68854 128.67122 30888 ft 556 kts 72°
2026-05-01 14:14 37.70042 128.76805 30868 ft 562 kts 79°
2026-05-01 14:15 37.70080 128.86776 30869 ft 571 kts 86°
2026-05-01 14:15 37.69865 128.96817 30862 ft 571 kts 85°
2026-05-01 14:16 37.69703 129.06631 30857 ft 569 kts 85°
2026-05-01 14:16 37.69577 129.16623 30844 ft 569 kts 85°
2026-05-01 14:17 37.69449 129.26614 30838 ft 570 kts 85°
2026-05-01 14:17 37.69304 129.36645 30837 ft 571 kts 85°
2026-05-01 14:18 37.69147 129.46668 30841 ft 571 kts 85°
2026-05-01 14:18 37.69008 129.55060 30833 ft 571 kts 85°
2026-05-01 14:19 37.68839 129.65006 30837 ft 570 kts 85°
2026-05-01 14:19 37.68626 129.76686 30840 ft 569 kts 85°
2026-05-01 14:20 37.68370 129.89969 30839 ft 568 kts 85°
2026-05-01 14:21 37.68169 129.99939 30841 ft 569 kts 85°
2026-05-01 14:21 37.67959 130.09913 30833 ft 568 kts 85°
2026-05-01 14:22 37.67632 130.24853 30845 ft 568 kts 85°
2026-05-01 14:22 37.67402 130.34818 30844 ft 568 kts 85°
2026-05-01 14:23 37.67162 130.44782 30842 ft 568 kts 85°
2026-05-01 14:23 37.66915 130.54739 30842 ft 567 kts 85°
2026-05-01 14:24 37.66661 130.64675 30852 ft 567 kts 84°
2026-05-01 14:24 37.66399 130.74621 30854 ft 567 kts 84°
2026-05-01 14:25 37.66127 130.84559 30852 ft 566 kts 84°
2026-05-01 14:25 37.65849 130.94496 30844 ft 567 kts 84°
2026-05-01 14:26 37.65415 131.09406 30843 ft 567 kts 84°
2026-05-01 14:27 37.65114 131.19345 30842 ft 566 kts 84°
2026-05-01 14:27 37.64806 131.29269 30842 ft 566 kts 84°
2026-05-01 14:28 37.64331 131.44104 30846 ft 567 kts 84°
2026-05-01 14:28 37.64003 131.54050 30847 ft 568 kts 84°
2026-05-01 14:29 37.63776 131.63974 30838 ft 563 kts 81°
2026-05-01 14:30 37.64029 131.83629 30842 ft 560 kts 81°
2026-05-01 14:31 37.64113 131.98402 30839 ft 561 kts 81°
2026-05-01 14:31 37.64132 132.08241 30833 ft 560 kts 82°
2026-05-01 14:32 37.64149 132.18051 30831 ft 559 kts 82°
2026-05-01 14:32 37.64164 132.27857 30831 ft 558 kts 82°
2026-05-01 14:33 37.64171 132.37644 30830 ft 558 kts 82°
2026-05-01 14:33 37.64168 132.47417 30824 ft 556 kts 82°
2026-05-01 14:34 37.64158 132.57162 30827 ft 555 kts 82°
2026-05-01 14:34 37.64157 132.66890 30826 ft 552 kts 81°
2026-05-01 14:35 37.64764 132.76445 30834 ft 544 kts 76°
2026-05-01 14:35 37.65549 132.85863 30821 ft 544 kts 77°
2026-05-01 14:36 37.66272 132.95350 30823 ft 542 kts 78°
2026-05-01 14:36 37.66966 133.04822 30814 ft 541 kts 78°
2026-05-01 14:37 37.67654 133.14257 30811 ft 539 kts 78°
2026-05-01 14:37 37.68335 133.23665 30810 ft 538 kts 78°
2026-05-01 14:38 37.69006 133.33054 30818 ft 537 kts 79°
2026-05-01 14:38 37.69670 133.42447 30809 ft 535 kts 79°
2026-05-01 14:39 37.70324 133.51805 30806 ft 534 kts 80°
2026-05-01 14:39 37.70968 133.61130 30800 ft 532 kts 80°
2026-05-01 14:40 37.71604 133.70441 30802 ft 531 kts 81°
2026-05-01 14:40 37.72225 133.79671 30855 ft 532 kts 81°
2026-05-01 14:40 37.72534 133.84332 31144 ft 532 kts 81°
2026-05-01 14:41 37.72838 133.88978 31509 ft 530 kts 81°
2026-05-01 14:41 37.73139 133.93606 31868 ft 528 kts 81°
2026-05-01 14:41 37.73438 133.98228 32179 ft 527 kts 81°
2026-05-01 14:41 37.73737 134.02853 32441 ft 528 kts 81°
2026-05-01 14:42 37.74034 134.07475 32679 ft 528 kts 81°
2026-05-01 14:42 37.74625 134.16743 32769 ft 529 kts 81°
2026-05-01 14:43 37.75209 134.26025 32779 ft 529 kts 81°
2026-05-01 14:43 37.75781 134.35274 32767 ft 526 kts 81°
2026-05-01 14:44 37.76346 134.44499 32769 ft 525 kts 82°
2026-05-01 14:44 37.77178 134.58297 32763 ft 525 kts 82°
2026-05-01 14:45 37.77990 134.72036 32752 ft 525 kts 82°
2026-05-01 14:46 37.78524 134.81233 32752 ft 525 kts 82°
2026-05-01 14:46 37.79312 134.95028 32745 ft 524 kts 82°
2026-05-01 14:47 37.79827 135.04211 32734 ft 523 kts 82°
2026-05-01 14:48 37.80586 135.17964 32734 ft 522 kts 82°
2026-05-01 14:48 37.81329 135.31726 32728 ft 523 kts 82°
2026-05-01 14:49 37.82294 135.50067 32714 ft 522 kts 83°
2026-05-01 14:50 37.83227 135.68370 32701 ft 521 kts 83°
2026-05-01 14:51 37.83910 135.82101 32696 ft 522 kts 83°
2026-05-01 14:52 37.84577 135.95847 32689 ft 521 kts 83°
2026-05-01 14:53 37.85225 136.09539 32678 ft 518 kts 83°
2026-05-01 14:53 37.85643 136.18564 32672 ft 517 kts 83°
2026-05-01 14:54 37.86058 136.27641 32669 ft 516 kts 83°
2026-05-01 14:54 37.86464 136.36698 32659 ft 515 kts 83°
2026-05-01 14:55 37.86863 136.45752 32635 ft 515 kts 83°
2026-05-01 14:55 37.87255 136.54803 32646 ft 515 kts 83°
2026-05-01 14:56 37.87640 136.63850 32631 ft 515 kts 83°
2026-05-01 14:56 37.88018 136.72899 32627 ft 515 kts 83°
2026-05-01 14:57 37.88389 136.81958 32618 ft 515 kts 83°
2026-05-01 14:57 37.88933 136.95551 32612 ft 516 kts 84°
2026-05-01 14:58 37.89288 137.04627 32605 ft 516 kts 84°
2026-05-01 14:58 37.89635 137.13703 32594 ft 516 kts 84°
2026-05-01 14:59 37.89976 137.22760 32583 ft 514 kts 84°
2026-05-01 14:59 37.90310 137.31796 32577 ft 513 kts 84°
2026-05-01 15:00 37.90820 137.45259 32565 ft 512 kts 84°
2026-05-01 15:01 37.91154 137.54278 32568 ft 513 kts 85°
2026-05-01 15:01 37.91480 137.63306 32566 ft 514 kts 85°
2026-05-01 15:02 37.91799 137.72345 32544 ft 513 kts 85°
2026-05-01 15:02 37.92110 137.81374 32538 ft 513 kts 85°
2026-05-01 15:03 37.92415 137.90398 32532 ft 513 kts 86°
2026-05-01 15:03 37.92713 137.99417 32517 ft 512 kts 86°
2026-05-01 15:04 37.93005 138.08432 32518 ft 512 kts 86°
2026-05-01 15:04 37.93287 138.17442 32512 ft 513 kts 86°
2026-05-01 15:05 37.93563 138.26484 32509 ft 514 kts 86°
2026-05-01 15:05 37.93834 138.35544 32502 ft 515 kts 86°
2026-05-01 15:06 37.94099 138.44637 32491 ft 517 kts 86°
2026-05-01 15:06 37.94313 138.52200 32479 ft 517 kts 86°
2026-05-01 15:07 37.94606 138.62823 32480 ft 517 kts 86°
2026-05-01 15:07 37.94849 138.71869 32476 ft 517 kts 86°
2026-05-01 15:08 37.95048 138.79502 32477 ft 518 kts 86°
2026-05-01 15:08 37.95316 138.90086 32485 ft 517 kts 86°
2026-05-01 15:09 37.95539 138.99200 32500 ft 517 kts 86°
2026-05-01 15:09 37.95720 139.06768 32499 ft 517 kts 87°
2026-05-01 15:10 37.96200 139.15832 32497 ft 514 kts 81°
2026-05-01 15:10 37.97703 139.29267 32460 ft 511 kts 80°
2026-05-01 15:11 37.99146 139.42631 32453 ft 510 kts 81°
2026-05-01 15:12 38.00077 139.51567 32452 ft 513 kts 81°
2026-05-01 15:12 38.01473 139.65062 32462 ft 516 kts 81°
2026-05-01 15:14 38.03771 139.87585 32425 ft 513 kts 82°
2026-05-01 15:14 38.05115 140.00974 32430 ft 508 kts 82°
2026-05-01 15:15 38.06883 140.18811 32411 ft 512 kts 82°
2026-05-01 15:16 38.08632 140.36742 32386 ft 515 kts 83°
2026-05-01 15:18 38.10804 140.59429 32353 ft 519 kts 83°
2026-05-01 15:19 38.12502 140.77506 32336 ft 513 kts 84°
2026-05-01 15:19 38.13578 140.91046 32332 ft 515 kts 90°
2026-05-01 15:20 38.12553 141.04578 32342 ft 513 kts 101°
2026-05-01 15:21 38.11470 141.13550 32329 ft 514 kts 101°
2026-05-01 15:21 38.10420 141.22535 32329 ft 514 kts 101°
2026-05-01 15:22 38.08888 141.35925 32324 ft 514 kts 101°
2026-05-01 15:22 38.07846 141.44969 32324 ft 514 kts 101°
2026-05-01 15:23 38.06809 141.53887 32319 ft 514 kts 102°
2026-05-01 15:23 38.05759 141.62858 32318 ft 514 kts 102°
2026-05-01 15:24 38.04703 141.71810 32312 ft 513 kts 102°
2026-05-01 15:24 38.03641 141.80759 32317 ft 512 kts 103°
2026-05-01 15:25 38.02572 141.89697 32315 ft 513 kts 103°
2026-05-01 15:25 38.01498 141.98635 32320 ft 513 kts 103°
2026-05-01 15:26 38.00417 142.07570 32313 ft 512 kts 103°
2026-05-01 15:26 37.99327 142.16485 32320 ft 511 kts 104°
2026-05-01 15:27 37.98233 142.25380 32315 ft 510 kts 104°